CW1100 Weather Reports


time (UTC)temp
C
wind
direction
speed
KPH
gust
KPH
rain 1hr
cm
rain 24hr
cm
rain mn
cm
humidity
%
barometer
mb
20260906215504 21 101 11.3 24.1 0.00 3.38 3.61 79 1022.7
20260906215004 21 73 6.4 27.4 0.00 3.38 3.61 79 1022.7
20260906214504 21 75 11.3 37.0 0.00 3.38 3.61 78 1022.6
20260906214004 21 81 12.9 37.0 0.00 3.38 3.61 77 1022.4
20260906213504 21 108 16.1 29.0 0.00 3.38 3.61 77 1022.2
20260906212504 21 108 14.5 32.2 0.00 3.38 3.61 77 1022.1
20260906212004 21 106 16.1 29.0 0.00 3.38 3.61 76 1022.3
20260906211504 21 96 16.1 32.2 0.00 3.38 3.61 76 1022.2
20260906211004 21 89 12.9 32.2 0.00 3.38 3.61 76 1022.2
20260906210504 21 96 14.5 29.0 0.00 3.38 3.61 76 1022.3
20260906210004 21 89 14.5 29.0 0.00 3.38 3.61 76 1022.4
20260906205004 21 101 14.5 24.1 0.00 3.38 3.61 75 1022.3
20260906204504 21 88 11.3 24.1 0.00 3.38 3.61 76 1022.3
20260906204004 21 96 12.9 25.7 0.00 3.38 3.61 75 1022.4
20260906203504 21 75 9.7 25.7 0.00 3.38 3.61 76 1022.5
20260906203004 21 75 11.3 25.7 0.00 3.38 3.61 77 1022.5
20260906202504 21 103 11.3 24.1 0.00 3.38 3.61 75 1022.7
20260906202004 21 92 14.5 32.2 0.00 3.38 3.61 75 1022.8
20260906201504 21 109 11.3 32.2 0.00 3.38 3.61 75 1022.7
20260906201004 21 109 9.7 27.4 0.00 3.38 3.61 78 1022.4
20260906200504 21 110 8.0 20.9 0.00 3.38 3.61 78 1022.6
20260906195504 20 88 9.7 20.9 0.00 3.38 3.61 77 1022.6
20260906195004 20 63 6.4 20.9 0.00 3.38 3.61 77 1022.5
20260906194504 20 95 8.0 22.5 0.00 3.38 3.61 78 1022.6
20260906193504 20 101 11.3 24.1 0.00 3.38 3.61 77 1022.2
20260906193005 20 94 11.3 22.5 0.00 3.38 3.61 76 1022.0
20260906192504 20 100 11.3 24.1 0.00 3.38 3.61 75 1022.2
20260906192004 20 78 12.9 24.1 0.00 3.38 3.61 74 1022.3
20260906191504 20 96 8.0 24.1 0.00 3.38 3.61 75 1022.5
20260906191004 21 89 11.3 25.7 0.00 3.38 3.61 73 1022.5
20260906190504 21 79 11.3 25.7 0.00 3.38 3.61 72 1022.9
20260906185504 21 98 8.0 19.3 0.00 3.38 3.61 74 1023.1
20260906185004 21 72 6.4 19.3 0.00 3.38 3.61 76 1023.2
20260906184504 21 61 4.8 16.1 0.00 3.38 3.61 78 1023.1
20260906183004 20 77 8.0 19.3 0.00 3.38 3.61 78 1023.6
20260906182504 20 71 8.0 24.1 0.00 3.38 3.61 80 1023.6
20260906181504 20 48 8.0 24.1 0.00 3.38 3.61 82 1023.8
20260906181005 19 53 11.3 24.1 0.00 3.38 3.61 82 1023.8
20260906180504 19 59 9.7 24.1 0.00 3.38 3.61 83 1024.0
20260906175504 18 58 11.3 20.9 0.00 3.38 3.61 82 1024.2
20260906175004 18 56 8.0 24.1 0.00 3.38 3.61 83 1024.3
20260906174504 18 62 11.3 24.1 0.00 3.38 3.61 82 1024.4
20260906174004 18 65 9.7 22.5 0.00 3.38 3.61 82 1024.2
20260906173504 18 59 9.7 22.5 0.00 3.38 3.61 81 1024.3
20260906173004 19 66 11.3 24.1 0.00 3.38 3.61 81 1024.5
20260906172504 19 54 11.3 24.1 0.00 3.38 3.61 81 1024.4
20260906172004 19 72 6.4 27.4 0.00 3.38 3.61 82 1024.0
20260906171504 19 64 8.0 32.2 0.00 3.38 3.61 83 1023.8
20260906170503 19 66 11.3 29.0 0.00 3.38 3.61 82 1023.5
20260906170003 18 75 11.3 29.0 0.00 3.38 3.61 83 1023.4
20260906165504 18 61 12.9 25.7 0.00 3.38 3.61 84 1023.5
20260906165004 18 66 14.5 25.7 0.00 3.38 3.61 83 1023.5
20260906164504 18 40 11.3 27.4 0.00 3.38 3.61 83 1023.4
20260906164004 18 27 14.5 27.4 0.00 3.38 3.61 83 1023.2
20260906163004 18 36 11.3 22.5 0.00 3.38 3.61 85 1023.1
20260906162504 18 24 11.3 22.5 0.00 3.38 3.61 86 1022.9
20260906162004 17 40 12.9 22.5 0.00 3.38 3.61 87 1023.2
20260906161504 17 33 9.7 25.7 0.00 3.38 3.61 88 1023.2
20260906161004 17 41 12.9 27.4 0.00 3.38 3.61 90 1023.5
20260906155504 16 48 11.3 25.7 0.00 3.38 3.61 93 1024.1
20260906155004 16 44 11.3 25.7 0.00 3.38 3.61 94 1024.2
20260906154504 16 32 12.9 22.5 0.00 3.38 3.61 95 1024.3
20260906154004 16 36 8.0 27.4 0.00 3.38 3.61 95 1024.4
20260906153504 16 44 12.9 35.4 0.00 3.38 3.61 95 1024.3
20260906153005 16 36 12.9 35.4 0.03 3.38 3.61 95 1024.1
20260906152504 16 36 19.3 35.4 0.08 3.38 3.61 95 1023.9
20260906152004 16 39 17.7 29.0 0.30 3.38 3.61 95 1024.3
20260906151504 16 48 16.1 27.4 0.74 3.38 3.61 95 1024.7
20260906151004 16 17 19.3 41.8 2.29 3.38 3.61 95 1025.4
20260906150504 16 21 14.5 41.8 3.12 3.38 3.61 95 1025.4
20260906150004 16 2 24.1 41.8 3.33 3.38 3.61 95 1025.5
20260906145504 16 32 11.3 19.3 3.35 3.38 3.61 95 1025.5
20260906145004 16 17 9.7 19.3 3.38 3.38 3.61 95 1025.5
20260906144504 16 39 8.0 25.7 3.38 3.38 3.61 95 1025.0
20260906144004 16 43 14.5 25.7 3.38 3.38 3.61 95 1024.7
20260906143504 16 350 16.1 24.1 3.38 3.38 3.61 95 1024.6
20260906142504 16 59 8.0 22.5 3.30 3.30 3.53 94 1024.3
20260906142004 17 47 14.5 45.1 3.07 3.07 3.30 94 1024.5
20260906141504 17 335 12.9 62.8 2.64 2.64 2.87 99 1026.0
20260906141004 17 244 33.8 62.8 1.09 1.09 1.32 93 1027.0
20260906140004 17 261 11.3 20.9 0.05 0.05 0.28 94 1025.3
20260906135504 18 298 4.8 14.5 0.03 0.03 0.25 94 1024.4
20260906135004 18 334 4.8 8.0 0.00 0.00 0.23 93 1024.2
20260906134504 18 332 3.2 4.8 0.00 0.00 0.23 93 1024.2
20260906134004 18 286 3.2 4.8 0.00 0.00 0.23 93 1024.3
20260906133504 18 350 1.6 4.8 0.00 0.00 0.23 93 1024.4
20260906132504 18 90 1.6 9.7 0.23 0.00 0.23 93 1024.1
20260906132004 18 143 1.6 11.3 0.23 0.00 0.23 93 1024.2
20260906130504 17 113 3.2 12.9 0.23 0.00 0.23 94 1023.8
20260906130004 17 123 3.2 12.9 0.23 0.00 0.23 94 1023.8
20260906125504 17 97 4.8 12.9 0.23 0.00 0.23 94 1023.7
20260906124505 17 75 1.6 16.1 0.23 0.00 0.23 94 1023.6
20260906123504 17 77 8.0 19.3 0.00 0.00 0.00 94 1023.1
20260906122504 17 96 8.0 19.3 0.00 0.00 0.00 94 1023.2
20260906122004 17 92 6.4 14.5 0.00 0.00 0.00 94 1023.5
20260906121504 17 94 6.4 16.1 0.00 0.00 0.00 94 1023.5
20260906120504 18 95 3.2 11.3 0.00 0.00 0.00 95 1023.9
20260906115504 18 57 4.8 12.9 0.00 0.00 0.00 95 1023.9
20260906115004 18 46 4.8 9.7 0.00 0.00 0.00 95 1023.9
20260906114504 18 52 4.8 9.7 0.00 0.00 0.00 95 1023.9
20260906113504 17 41 4.8 12.9 0.00 0.00 0.00 95 1023.8
20260906113004 17 34 3.2 12.9 0.00 0.00 0.00 95 1023.9
20260906112004 17 40 4.8 16.1 0.00 0.00 0.00 95 1023.7
20260906111504 17 52 8.0 16.1 0.00 0.00 0.00 95 1023.6
20260906111004 17 54 6.4 14.5 0.00 0.00 0.00 95 1023.6
20260906110004 17 27 4.8 16.1 0.00 0.00 0.00 95 1023.8
20260906105504 17 19 6.4 16.1 0.00 0.00 0.00 95 1023.6
20260906105003 17 32 6.4 16.1 0.00 0.00 0.00 100 1023.6
20260906104504 17 41 6.4 14.5 0.00 0.00 0.00 96 1023.6
20260906104004 17 29 3.2 8.0 0.00 0.00 0.00 95 1023.5
20260906103004 17 29 4.8 8.0 0.00 0.00 0.00 100 1023.3
20260906102504 17 32 4.8 8.0 0.00 0.00 0.00 95 1023.3
20260906102004 16 33 4.8 12.9 0.00 0.00 0.00 95 1023.4
20260906101504 16 34 4.8 12.9 0.00 0.00 0.00 95 1023.4
20260906100504 16 7 6.4 11.3 0.00 0.00 0.00 95 1023.5
20260906100004 16 37 4.8 14.5 0.00 0.00 0.00 95 1023.5
20260906095004 16 0 8.0 14.5 0.00 0.00 0.00 95 1023.6
20260906094504 16 30 4.8 14.5 0.00 0.00 0.00 95 1023.5
20260906094004 16 7 8.0 14.5 0.00 0.00 0.00 95 1023.6
20260906093504 16 357 6.4 9.7 0.00 0.00 0.00 95 1023.6
20260906093004 16 30 3.2 8.0 0.00 0.00 0.00 95 1023.6
20260906092504 16 18 4.8 14.5 0.00 0.00 0.00 95 1023.7
20260906092004 16 33 3.2 14.5 0.00 0.00 0.00 95 1023.7
20260906091504 16 338 4.8 14.5 0.00 0.00 0.00 94 1023.8
20260906091004 17 351 3.2 4.8 0.00 0.00 0.00 95 1023.7
20260906090504 16 30 1.6 4.8 0.00 0.00 0.00 94 1023.6
20260906090004 16 30 1.6 4.8 0.00 0.00 0.00 94 1023.6
20260906085504 16 44 1.6 4.8 0.00 0.00 0.00 94 1023.6
20260906085004 16 44 1.6 4.8 0.00 0.00 0.00 94 1023.7
20260906084504 17 44 3.2 8.0 0.00 0.00 0.00 94 1023.7
20260906084004 17 44 3.2 8.0 0.00 0.00 0.00 94 1023.7
20260906083504 17 31 3.2 8.0 0.00 0.00 0.00 94 1023.7
20260906083004 17 30 3.2 8.0 0.00 0.00 0.00 94 1023.7
20260906082504 17 44 4.8 8.0 0.00 0.00 0.00 94 1023.7
20260906082004 17 9 4.8 8.0 0.00 0.00 0.00 93 1023.7
20260906081504 17 15 3.2 8.0 0.00 0.00 0.00 94 1023.7
20260906081004 17 31 4.8 8.0 0.00 0.00 0.00 93 1023.8
20260906080504 17 30 4.8 8.0 0.00 0.00 0.00 93 1023.8
20260906080004 17 21 4.8 11.3 0.00 0.00 0.00 93 1023.9
20260906075504 17 34 3.2 11.3 0.00 0.00 0.00 93 1023.9
20260906074504 17 26 4.8 8.0 0.00 0.00 0.00 93 1024.1
20260906074004 17 18 4.8 9.7 0.00 0.00 0.00 93 1024.1
20260906073504 17 29 4.8 11.3 0.00 0.00 0.00 93 1024.1
20260906073004 17 17 4.8 11.3 0.00 0.00 0.00 93 1024.2
20260906072004 17 17 6.4 14.5 0.00 0.00 0.00 93 1024.3
20260906071504 17 14 8.0 12.9 0.00 0.00 0.00 92 1024.4
20260906071004 17 25 4.8 11.3 0.00 0.00 0.00 92 1024.4
20260906070504 17 39 4.8 11.3 0.00 0.00 0.00 92 1024.4
20260906070004 18 19 4.8 9.7 0.00 0.00 0.00 92 1024.4
20260906065504 18 22 6.4 9.7 0.00 0.00 0.00 92 1024.4
20260906065004 18 34 4.8 11.3 0.00 0.00 0.00 92 1024.4
20260906064504 18 29 6.4 14.5 0.00 0.00 0.00 92 1024.4
20260906064004 18 55 6.4 19.3 0.00 0.00 0.00 92 1024.4
20260906063504 18 17 4.8 19.3 0.00 0.00 0.00 91 1024.5
20260906063004 18 26 9.7 19.3 0.00 0.00 0.00 91 1024.5
20260906062504 18 30 9.7 19.3 0.00 0.00 0.00 91 1024.5
20260906062004 18 30 9.7 19.3 0.00 0.00 0.00 91 1024.5
20260906061504 18 10 8.0 19.3 0.00 0.00 0.00 91 1024.5
20260906060004 21 36 9.7 19.3 0.00 0.00 0.00 82 1024.1
20260906034503 21 45 8.0 24.1 0.00 0.00 0.00 82 1024.1
20260906034004 21 62 9.7 24.1 0.00 0.00 0.00 82 1024.0
20260906033004 21 37 11.3 22.5 0.00 0.00 0.00 81 1024.1
20260906032503 21 39 11.3 22.5 0.00 0.00 0.00 82 1024.1
20260906032004 21 38 9.7 16.1 0.00 0.00 0.00 81 1024.0
20260906031004 21 28 8.0 16.1 0.00 0.00 0.00 82 1024.0
20260906025504 21 36 8.0 20.9 0.00 0.00 0.00 82 1024.0
20260906025004 21 33 8.0 20.9 0.00 0.00 0.00 82 1024.0
20260906024504 21 27 9.7 20.9 0.00 0.00 0.00 82 1024.0
20260906024004 21 18 8.0 16.1 0.00 0.00 0.00 81 1024.0
20260906023504 21 20 8.0 16.1 0.00 0.00 0.00 81 1024.0
20260906023004 21 25 6.4 20.9 0.00 0.00 0.00 81 1023.8
20260906022503 21 32 6.4 20.9 0.00 0.00 0.00 81 1023.7
20260906022004 21 39 8.0 16.1 0.00 0.00 0.00 81 1023.6
20260906021504 21 26 8.0 16.1 0.00 0.00 0.00 81 1023.6
20260906021004 21 16 8.0 20.9 0.00 0.00 0.00 81 1023.5
20260906020504 21 27 11.3 20.9 0.00 0.00 0.00 81 1023.4
20260906020004 22 18 9.7 20.9 0.00 0.00 0.00 81 1023.4
20260906015504 22 32 9.7 19.3 0.00 0.00 0.00 81 1023.3
20260906015004 22 33 11.3 19.3 0.00 0.00 0.00 80 1023.3
20260906014504 22 14 11.3 19.3 0.00 0.00 0.00 80 1023.2
20260906014004 22 15 11.3 19.3 0.00 0.00 0.00 79 1023.2
20260906013504 22 28 8.0 16.1 0.00 0.00 0.00 79 1023.2
20260906013004 22 21 8.0 19.3 0.00 0.00 0.00 79 1023.1
20260906012504 22 14 11.3 19.3 0.00 0.00 0.00 78 1022.9
20260906012004 23 27 9.7 16.1 0.00 0.00 0.00 77 1022.7
20260906011504 23 9 11.3 19.3 0.00 0.00 0.00 77 1022.7
20260906011004 23 24 9.7 20.9 0.00 0.00 0.00 77 1022.6
20260906010504 23 16 11.3 24.1 0.00 0.00 0.00 76 1022.6
20260906010004 23 32 11.3 24.1 0.00 0.00 0.00 75 1022.6
20260906005004 24 33 14.5 25.7 0.00 0.00 0.00 74 1022.5
20260906004504 24 33 11.3 25.7 0.00 0.00 0.00 74 1022.4
20260906004004 24 34 14.5 24.1 0.00 0.00 0.00 73 1022.4
20260906003504 24 17 14.5 22.5 0.00 0.00 0.00 73 1022.5
20260906003004 25 28 11.3 24.1 0.00 0.00 0.00 73 1022.5
20260906002504 25 38 11.3 24.1 0.00 0.00 0.00 73 1022.5
20260906002005 25 40 12.9 25.7 0.00 0.00 0.00 72 1022.4
20260906001504 25 41 19.3 25.7 0.00 0.00 0.00 71 1022.5
20260906001004 25 28 11.3 32.2 0.00 0.00 0.00 71 1022.4
20260905235504 25 9 14.5 27.4 0.00 0.00 0.00 69 1022.3
20260905235004 25 17 19.3 27.4 0.00 0.00 0.00 68 1022.4
20260905234004 26 13 16.1 29.0 0.00 0.00 0.00 69 1022.4
20260905233504 26 37 12.9 29.0 0.00 0.00 0.00 67 1022.4
20260905233004 26 352 16.1 29.0 0.00 0.00 0.00 67 1022.3
20260905232004 26 6 14.5 25.7 0.00 0.00 0.00 68 1022.3
20260905231504 26 355 9.7 29.0 0.00 0.00 0.00 67 1022.2
20260905231004 26 341 11.3 29.0 0.00 0.00 0.00 68 1022.1
20260905230504 26 2 14.5 32.2 0.00 0.00 0.00 69 1022.0
20260905230004 26 336 19.3 32.2 0.00 0.00 0.00 68 1022.0
20260905225504 26 350 19.3 29.0 0.00 0.00 0.00 69 1022.0
20260905225004 26 8 17.7 27.4 0.00 0.00 0.00 68 1022.0
20260905224504 26 335 19.3 27.4 0.00 0.00 0.00 68 1021.9
20260905223504 26 11 11.3 27.4 0.00 0.00 0.00 67 1022.0
20260905222504 26 357 8.0 29.0 0.00 0.00 0.00 67 1022.2
20260905222004 26 335 16.1 29.0 0.00 0.00 0.00 66 1022.2
20260905221504 26 354 9.7 19.3 0.00 0.00 0.00 67 1022.2
20260905221004 26 355 11.3 22.5 0.00 0.00 0.00 68 1022.3
20260905220504 26 312 6.4 24.1 0.00 0.00 0.00 67 1022.3
20260905220004 26 359 9.7 24.1 0.00 0.00 0.00 67 1022.3